Погода в Соловьихе

Россия / Алтайский край     51°58′14″N   84°08′43″E
темп.,
°C
ветер,
м/с
пор.,
м/с
влажн.,
%
обл.,
%
осадки,
мм/ч
давл.,
гПа
погр.,
м
11 апреля, вс
вс1101:00−1в249881 0.0 1036136
04:00−1всв339468 0.0 1035109
07:00−4всв2410089 0.0 103795
10:00−1всв369438 0.0 1037277
13:00+1всв469362 0.0 1036358
16:00+2всв478873 0.0 1036335
19:00+1всв269447 0.0 1037259
22:000всв229741 0.0 103749
12 апреля, пн
пн1201:000вюв229539 0.0 103652
04:000в22916 0.0 103523
07:000в12885 0.0 103523
10:00+4в127095 0.0 1034127
13:00+7св22666 0.0 1033264
16:00+9ссв217110 0.0 1031247
19:00+6св11878 0.0 103210
22:00+4ююз227719 0.0 103210
13 апреля, вт
вт1301:00+3юз228135 0.0 103112
04:00+2зюз2284100 0.0 103112
07:00+1зюз2285100 0.0 103115
10:00+3зсз2474100 0.1 1033299
13:00+2зсз2378100 0.1 1033219
16:00+3сз1292100 0.0 1035384
19:00+3ююз019276 0.0 1035156
22:00+1ю33895 0.0 103634
14 апреля, ср
ср1401:00+1ююз32845 0.0 103627
04:00+1юз22821 0.0 103527
07:00+1юз228481 0.0 103616
10:00+5зюз11655 0.0 1036421
13:00+8сз215027 0.0 1034715
16:00+10ссз21445 0.0 1032766
19:00+9ссз225071 0.0 1030420
22:00+6ююз116463 0.0 102910
15 апреля, чт
чт1501:00+5ююз226698 0.0 102814
04:00+5ююз2270100 0.0 102623
07:00+4ю2271100 0.0 102624
10:00+9юз12517 0.0 1024313
13:00+12сз21365 0.0 1022810
16:00+14ссз21335 0.0 10211033
19:00+13ссв11410 0.0 1020311
22:00+9юв11530 0.0 102010